Tracking 31027 objects as of 19-Jul-2025
HD Live streaming from Space Station
objects crossing your sky now

HULIANWANG DIGUI-16

Track HULIANWANG DIGUI-16 now!
10-day predictions


NORAD ID: 62976
Int'l Code: 2025-030F
Perigee: 1,156.0 km
Apogee: 1,156.9 km
Inclination: 50.0 °
Period: 108.3 minutes
Semi major axis: 7527 km
RCS: Unknown
Launch date: February 11, 2025
Source: People's Republic of China (PRC)
Launch site: Wenchang Satellite Launch Center (WSC)
Your satellite tracking list
STARLINK-5403
Track 1 satellite(s)




NASA's NSSDC Master Catalog

Two Line Element Set (TLE):
1 62976U 25030F   25199.47275243 -.00000109  00000-0  33315-4 0  9990
2 62976  50.0068 352.4779 0000628 184.4966 175.5900 13.29325720 21477
Source of the keplerian elements: AFSPC